Find Asiasat 6

NORAD ID: 40141 Int'l Des: 2014-052 Owner: ASIA Country: HK operational
HEOCIRCULARGSOGEO

Live Position

Loading 3D Globe...

About Asiasat 6

Description loading...

Upcoming Passes

Passes for default location (London). Set your location on the main map for personalized predictions.

Altitude History

Loading altitude history...

Two-Line Element Set

1 40141U 14052A 26106.96332123 -.00000355 00000-0 00000-0 0 9990
2 40141 0.0418 67.9549 0000741 299.6019 304.2540 1.00269737 42462
Epoch: Apr 16, 2026 • Age: 11 hours

Current Status

Altitude 35788.0 km
Velocity 3.07 km/s
Sub-Earth Point -0.02°S, 119.91°E
Launch Date Sep 7, 2014
Age 11.6 years
Type other

Technical Details

Classification Payload
Mass 3700.00 kg
Dry Mass 2500.00 kg
Total Mass 3700.00 kg
Length 4.50 m
Diameter 2.20 m
Span 27.00 m
Shape Box + 2 pan
Manufacturer SSL
Bus Type LS-1300
Phase Status In Orbit
Owner/State ASIA/HK

Most Searched